Regional Weather Roundup
Issued by NWS

Home | Current Version | Previous Version | Text Only | Print | Product List | Glossary On
Versions: 1 2 3 4 5 6 7 8 9 10 11 12 13 14 15 16 17 18 19 20 21 22 23 24 25 26 27 28 29 30 31 32 33 34 35 36 37 38 39 40 41 42 43 44 45 46 47 48 49 50
000
ASUS45 KBOU 011307
RWRCO

WEATHER ROUNDUP FOR COLORADO
NATIONAL WEATHER SERVICE DENVER/BOULDER CO
700 AM MDT MON SEP 01 2014

NOTE: "FAIR" INDICATES FEW OR NO CLOUDS BELOW 12000 FEET WITH NO
SIGNIFICANT WEATHER AND/OR OBSTRUCTIONS TO VISIBILITY.

COZ001>005-013-030-031-011400-
...NORTHWEST COLORADO...

CITY           SKY/WX    TMP DP  RH WIND       PRES   REMARKS
CRAIG          CLEAR     41  38  89 MISG      30.15R
HAYDEN         CLEAR     43  37  81 E10       30.15R
MEEKER         CLEAR     43  36  76 E8        30.16R
MOUNT WERNER   NOT AVBL
STEAMBOAT SPGS CLEAR     38  37  97 CALM      30.18R
WALDEN         PTCLDY    37  32  81 SW5       30.19R
$$

COZ006>008-011-011400-
...WEST CENTRAL VALLEYS...

CITY           SKY/WX    TMP DP  RH WIND       PRES   REMARKS
GRAND JUNCTION CLEAR     53  40  61 E5        30.05R
MONTROSE       CLEAR     51  38  60 SE8       30.13R
EAGLE          CLEAR     41  39  93 CALM      30.21R
RIFLE          CLEAR     46  40  79 CALM      30.12R
DELTA          CLEAR     55  38  53 E6        30.10R HAZE
NUCLA          CLEAR     50  34  53 SE7       30.15R
$$

COZ017>023-064>068-011400-
...SOUTHWEST COLORADO...

CITY           SKY/WX    TMP DP  RH WIND       PRES   REMARKS
DURANGO        CLEAR     47  36  65 N6        30.17R
CORTEZ         CLEAR     44  38  79 E5        30.13R
PAGOSA SPRINGS NOT AVBL
TELLURIDE      CLEAR     46  32  57 SE8       30.32R
WOLF CREEK PAS CLEAR     41  30  65 SW12      30.47R
$$

COZ009-010-012-014-032>034-037-058>063-011400-
...CENTRAL COLORADO...

CITY           SKY/WX    TMP DP  RH WIND       PRES   REMARKS
ASPEN          CLEAR     42  35  76 SW6       30.21R
BUENA VISTA    CLEAR     37  31  81 W3        30.21R
COPPER MTN     CLEAR     41  19  42 W20G29    30.41R
BERTHOUD PASS  FAIR      28  28 100 NW23      30.39S FOG     WCI  14
COTTONWOOD PAS CLEAR     52  28  40 SE5       30.30R
GUNNISON       CLEAR     39  32  75 CALM      30.26R
KREMMLING      CLEAR     36  32  87 CALM      30.23R
LEADVILLE      CLEAR     43  26  51 NE9       30.29S
MONARCH PASS   CLEAR     36  28  75 W33       30.51S
SALIDA         CLEAR     50  42  74 S9        30.26R
SUNLIGHT       CLEAR     41  30  65 CALM      30.37R
WILKERSON PASS NOT AVBL
$$

COZ069>075-011400-
...SAN LUIS VALLEY/SANGRE DE CRISTO MOUNTAINS...

CITY           SKY/WX    TMP DP  RH WIND       PRES   REMARKS
ALAMOSA        CLEAR     40  33  76 CALM      30.20R
LA VETA PASS   NOT AVBL
SAGUACHE       NOT AVBL
$$

COZ035-036-038>040-011400-
...NORTHERN COLORADO FRONT RANGE...

CITY           SKY/WX    TMP DP  RH WIND       PRES   REMARKS
DENVER INTL AP MOCLDY    53  46  77 S7        30.08R
DMNS CITY PARK   N/A     55  48  76 W1        30.08R
AURORA         PTCLDY    52  43  71 S3        30.10R
FRONT RANGE AP NOT AVBL
ERIE MUNI ARPT CLEAR     47  46  97 CALM      30.07S
BOULDER MUN AP CLEAR     52  48  87 CALM      30.07S
CENTENNIAL     PTCLDY    51  45  79 SE6       30.09S
BROOMFIELD     PTCLDY    54  46  76 CALM      30.09S
FORT COLLINS   CLEAR     52  45  76 S6        30.07S
LONGMONT       CLEAR     51  48  90 W6        30.08S FOG
$$

COZ041-046-047-076>085-087-088-011400-
...PIKES PEAK/PALMER DIVIDE AND SOUTHERN FOOTHILLS...

CITY           SKY/WX    TMP DP  RH WIND       PRES   REMARKS
COLO. SPRINGS  PTCLDY    53  45  74 E9        30.13R
A. F. ACADEMY  CLEAR     45  44  94 N5        30.14R
ELLICOTT       CLEAR     52  41  66 SE8       30.12R
FALCON         CLEAR     48  44  86 CALM      30.16S
FORT CARSON    CLEAR     51  47  86 S9        30.12R
LIMON          MOCLDY    53  48  83 CALM      30.08S
MONUMENT HILL  CLEAR     46  45  93 SW5       30.15R
TRINIDAD       CLEAR     51  46  83 NW7       30.12R
$$

COZ042>045-048>051-090-091-011400-
...NORTHEAST COLORADO...

CITY           SKY/WX    TMP DP  RH WIND       PRES   REMARKS
GREELEY ARPT   CLEAR     50  43  76 CALM      30.06S
AKRON          MOCLDY    53  48  83 W8        30.05R
BURLINGTON     MOCLDY    52  48  86 NW7       30.04R
WRAY             N/A    N/A N/A N/A SW5       30.02R
STERLING       CLEAR     50  50 100 CALM      30.02S
HOLYOKE        PTCLDY    54  50  87 W7        30.01R
FORT MORGAN    PTCLDY    51  47  87 CALM      30.06R
$$

COZ086-089-092>099-011400-
...SOUTHEAST COLORADO...

CITY           SKY/WX    TMP DP  RH WIND       PRES   REMARKS
PUEBLO         CLEAR     54  46  74 CALM      30.08R
LA JUNTA       CLEAR     56  48  74 CALM      30.06R
LAMAR          PTCLDY    52  49  89 CALM      30.02R
SPRINGFIELD      N/A     56  52  86 N10       30.04R
$$



USA.gov is the U.S. government's official web portal to all federal, state and local government web resources and services.